Regional Weather Roundup
Issued by NWS

Home | Current Version | Previous Version | Text Only | Print | Product List | Glossary Off
Versions: 1 2 3 4 5 6 7 8 9 10 11 12 13 14 15 16 17 18 19 20 21 22 23 24 25 26 27 28 29 30 31 32 33 34 35 36 37 38 39 40 41 42 43 44 45 46 47 48 49 50

347
ASUS43 KBIS 271131
RWRND
NORTH DAKOTA REGIONAL WEATHER ROUNDUP
NATIONAL WEATHER SERVICE EASTERN NORTH DAKOTA/GRAND FORKS ND
600 AM CDT SAT MAY 27 2017

  NOTE: "FAIR" INDICATES FEW OR NO CLOUDS BELOW 12,000 FEET WITH NO
  SIGNIFICANT WEATHER AND/OR OBSTRUCTIONS TO VISIBILITY.

NDZ001>003-009>011-017-271200-
...NORTHWEST NORTH DAKOTA...

CITY           SKY/WX    TMP DP  RH WIND       PRES   REMARKS
WILLISTON      CLOUDY    50  40  68 W13       29.87S
MINOT          CLOUDY    52  40  63 SW10      29.80S
MINOT AFB      MOCLDY    49  40  70 W7        29.80R
$$

NDZ018>021-031>035-040>046-271200-
...SOUTHWEST NORTH DAKOTA...

CITY           SKY/WX    TMP DP  RH WIND       PRES   REMARKS
BISMARCK       FAIR      45  37  73 W5        29.87F
DICKINSON      FAIR      38  33  82 W9        29.89  WCI  31
GARRISON         N/A     44  37  76 W9        29.85R
HETTINGER      FAIR      36  32  85 NW5       29.94R WCI  32
$$

NDZ004>008-012>016-024-026-027-054-271200-
...NORTHEAST NORTH DAKOTA...

CITY           SKY/WX    TMP DP  RH WIND       PRES   REMARKS
GRAND FORKS    FAIR      51  42  71 SW8       29.77R
GRAND FORKS AF FAIR      49  41  74 W9        29.77S
DEVILS LAKE    FAIR      50  42  74 W12       29.80R
$$

NDZ022-023-025-028>030-036>039-047>053-271200-
...SOUTHEAST NORTH DAKOTA...

CITY           SKY/WX    TMP DP  RH WIND       PRES   REMARKS
JAMESTOWN      FAIR      50  41  71 W8        29.84R
FARGO          FAIR      49  42  77 S8        29.82S
WAHPETON       FAIR      46  41  81 S5        29.85R
$$




USA.gov is the U.S. government's official web portal to all federal, state and local government web resources and services.